Content
SEND FEEDBACK

Daily
Averages
Monthly
Summary
United States of America

NEW YORK, NEW YORK


Home > North America > United States > New York
Elevation: 131 feet     Latitude: 40 47N     Longitude: 073 58W

WEATHER
 
SELECT A DAY
Number of Records: 148,218;   Date Range: 11/1/95 - 8/30/14
 
SHARE

PRINT THIS DATA

[ ← Previous Day ]
WEATHER ALMANAC - MAY 9, 2013
[ Next Day → ]
[ °C ]   °F
Weather ElementAverageHighLow
Temperature59.1 °F66 °F (2:29 pm)55 °F (1:51 am)
Dewpoint55 °F57.9 °F (12:47 pm)52 °F (1:51 am)
Humidity87 %97 % (10:35 am)67 % (7:51 pm)
Barometer29.95 in30.01 in (2:09 am)29.89 in (4:51 pm)
Wind Speed3.4 mph6.9 mph (7:51 am)
Weather ElementAverage
Visibility5.3 mi
Wind DirectionNE (43.4 °)

Weather ElementTotal
Precipitation1.24 in
Heating Degree Days4.5 (Base 65)
Growing Degree Days10.5 (Base 50)
Averaged from 44 records on May 9, 2013
WEATHER CONDITIONS BREAKOUT
WIND DIRECTION BREAKOUT
WEATHER BY HOUR - MAY 9, 2013
[ °C ]   °F
Local TimeTemperatureDewpointHumidityBarometerVisibilityWind DirectionWind SpeedGust SpeedPrecipitationEventsConditions
1:51 AM55.0 °F52.0 °F89 %29.98 in6.0 miCalmClear
2:00 AM55.0 °F52.0 °F89 %30.00 in5.0 miVariable4.6 mphScattered Clouds
2:09 AM55.9 °F53.1 °F90 %30.01 in6.0 miVariable3.5 mphMostly Cloudy
2:51 AM55.9 °F54.0 °F93 %29.97 in4.0 miVariable3.5 mphOvercast
3:38 AM55.9 °F54.0 °F93 %29.98 in4.0 miVariable5.8 mphOvercast
3:51 AM55.9 °F54.0 °F93 %29.95 in4.0 miEast (80°)5.8 mphOvercast
4:51 AM55.9 °F54.0 °F93 %29.95 in3.0 miVariable3.5 mphOvercast
5:51 AM55.9 °F54.0 °F93 %29.96 in4.0 miVariable3.5 mphOvercast
6:05 AM55.9 °F54.0 °F93 %29.98 in4.0 miCalmOvercast
6:51 AM55.9 °F54.0 °F93 %29.95 in3.0 miENE (70°)5.8 mphOvercast
7:44 AM55.9 °F54.0 °F93 %29.98 in1.8 miVariable4.6 mph0.01 inRainHeavy Rain
7:51 AM55.9 °F54.0 °F93 %29.95 in1.8 miENE (70°)6.9 mph0.02 inRainLight Rain
7:57 AM55.9 °F54.0 °F93 %29.98 in3.0 miENE (60°)6.9 mph0.00 inOvercast
8:51 AM57.0 °F55.0 °F93 %29.95 in4.0 miENE (60°)5.8 mph0.00 inOvercast
9:47 AM57.0 °F55.0 °F93 %29.95 in1.8 miCalm0.02 inRainRain
10:01 AM55.9 °F54.0 °F93 %29.97 in0.8 miCalm0.07 inRainHeavy Rain
10:35 AM55.9 °F55.0 °F97 %29.96 in1.0 miNE (50°)4.6 mph0.28 inRainHeavy Rain
10:51 AM57.0 °F55.9 °F96 %29.94 in2.5 miNE (40°)6.9 mph0.30 inRainLight Rain
10:59 AM57.0 °F55.0 °F93 %29.96 in3.0 miENE (60°)5.8 mph0.00 inOvercast
11:06 AM57.0 °F55.0 °F93 %29.96 in3.0 miNE (50°)5.8 mph0.00 inOvercast
11:19 AM55.9 °F55.0 °F97 %29.97 in2.0 miCalm0.01 inRainLight Rain
11:21 AM55.9 °F55.0 °F97 %29.97 in1.8 miCalm0.01 inRainLight Rain
11:33 AM57.0 °F55.0 °F93 %29.97 in0.8 miNE (50°)3.5 mph0.09 inRainHeavy Rain
11:44 AM57.0 °F55.9 °F96 %29.97 in1.5 miVariable3.5 mph0.13 inRainLight Rain
11:48 AM57.2 °F55.4 °F94 %29.97 in2.5 miNE (50°)3.5 mph0.13 inOvercast
11:51 AM57.0 °F55.9 °F96 %29.94 in3.0 miENE (60°)5.8 mph0.13 inOvercast
11:58 AM57.0 °F55.9 °F96 %29.97 in2.5 miENE (60°)3.5 mphOvercast
12:18 PM57.9 °F55.9 °F93 %29.96 in1.2 miNE (50°)3.5 mph0.01 inRainLight Rain
12:47 PM60.1 °F57.9 °F93 %29.94 in3.0 miCalm0.03 inOvercast
1:14 PM61.0 °F57.9 °F90 %29.96 in10.0 miVariable3.5 mphOvercast
1:43 PM63.0 °F57.9 °F84 %29.95 in10.0 miCalmOvercast
1:51 PM63.0 °F57.9 °F84 %29.93 in10.0 miVariable3.5 mphOvercast
2:17 PM64.0 °F57.9 °F80 %29.94 in10.0 miENE (60°)4.6 mphMostly Cloudy
2:29 PM66.0 °F57.9 °F75 %29.94 in10.0 miVariable4.6 mphMostly Cloudy
2:51 PM64.9 °F57.0 °F75 %29.91 in10.0 miCalmMostly Cloudy
3:51 PM66.0 °F57.0 °F73 %29.90 in10.0 miVariable3.5 mphScattered Clouds
4:51 PM66.0 °F55.0 °F68 %29.89 in10.0 miVariable3.5 mphMostly Cloudy
5:51 PM64.0 °F57.0 °F78 %29.89 in10.0 miCalm0.00 inRainLight Rain
6:51 PM64.9 °F54.0 °F68 %29.90 in10.0 miVariable4.6 mph0.00 inMostly Cloudy
7:51 PM64.0 °F53.1 °F67 %29.92 in10.0 miWest (280°)5.8 mphPartly Cloudy
8:51 PM64.0 °F54.0 °F70 %29.93 in10.0 miCalmMostly Cloudy
9:51 PM64.0 °F54.0 °F70 %29.94 in10.0 miWSW (250°)3.5 mphClear
10:51 PM64.0 °F53.1 °F67 %29.94 in10.0 miWSW (250°)3.5 mphClear
11:51 PM63.0 °F53.1 °F70 %29.94 in9.0 miWest (260°)3.5 mphPartly Cloudy
Hourly data recorded from KNYC, located miles away from New York, New York







STORIES FROM OUR PARTNERS